www.pogodaiklimat.ru

Погода и климат >> Архив погоды >> Индия >> Balasore


ПОГОДА в Balasore

  • Прогноз погоды в Balasore
  • Монитор погоды в Balasore
  • Климат города

АРХИВ ПОГОДЫ в Balasore

Время (UTC), дата Ветер
(напр.,м/с)
 
Видим.   Явления Облачность Т
(С)
Тd
(С)
f
(%)
Тe
(С)
Тes
(С)
Комфортность P
(гПа)
Po
(гПа)
Тmin
(С)
Tmax
(С)
R
(мм)
R24
(мм)
S
(см)
15 15.02 штиль 0 2000 м мгла 3/0
[Ci fib]
+22.8 +17.0 70 +28 +28 душно 1017.4 1017.0
18 15.02 штиль 0 2000 м мгла 4/0
[Ci fib]
+20.4 +15.4 73 +23 +23 комфорт 1018.0 1018.0
21 15.02 штиль 0 2000 м мгла 5/0
[Ci fib]
+19.8 +15.1 74 +22 +22 комфорт 1017.0 1017.0
00 16.02 штиль 0 2000 м мгла 4/0
[Ci fib]
+17.4 +13.1 76 +17 +17 1017.3 1017.0
03 16.02 штиль 0 2000 м мгла 3/0
[Ci fib]
+21.4 +11.8 54 +23 +31 комфорт 1019.2 1019.0 +15.0
06 16.02 СВ 1 4000 м ясно +27.6 +15.9 49 +31 +49 душно 1017.4 1017.0
09 16.02 штиль 0 4000 м 4/0
[Ac trans]
+30.0 +18.9 51 +35 +44 очень
душно
1013.9 1014.0
12 16.02 ЮВ 1 2000 м мгла 3/0
[Ac trans]
+25.0 +19.8 73 +31 +31 очень
душно
1013.2 1013.0 +31.0
15 16.02 штиль 0 2000 м мгла 3/0
[Ac trans]
+22.4 +18.6 79 +28 +28 душно 1015.0 1015.0
18 16.02 ЮЗ 1 2000 м мгла 3/0
[Ci fib]
+20.0 +16.0 78 +24 +24 комфорт 1014.0 1014.0
21 16.02 штиль 0 2000 м мгла 4/0
[Ci fib]
+19.0 +15.3 79 +20 +20 1012.9 1013.0
00 17.02 СЗ 1 2000 м мгла 3/0
[Ci fib]
+17.8 +14.0 78 +19 +19 1012.6 1013.0
03 17.02 С 2 2000 м мгла ясно +23.0 +11.2 47 +25 +32 комфорт 1014.9 1015.0 +15.5
06 17.02 С 2 4000 м ясно +29.4 +8.7 27 +29 +44 жарко 1013.1 1013.0
09 17.02 В 1 4000 м ясно +29.6 +14.5 40 +32 +41 душно 1009.4 1009.0
12 17.02 ЮВ 1 2000 м мгла ясно +25.0 +16.6 60 +29 +29 душно 1009.6 1010.0 +32.1
15 17.02 штиль 0 2000 м мгла ясно +22.4 +17.2 72 +27 +27 душно 1011.4 1011.0
18 17.02 штиль 0 2000 м мгла ясно +20.2 +15.9 76 +23 +23 комфорт 1011.6 1012.0
21 17.02 штиль 0 2000 м мгла ясно +19.0 +14.9 77 +20 +20 1010.9 1011.0
00 18.02 С 1 2000 м мгла ясно +18.0 +12.6 71 +19 +19 1011.5 1012.0
03 18.02 штиль 0 2000 м мгла ясно +24.0 +14.6 56 +27 +35 жарко 1013.2 1013.0 +15.6
06 18.02 СВ 1 4000 м ясно +31.0 +14.7 37 +33 +51 опасность
солнечного
удара
1012.9 1013.0
09 18.02 Ю 2 4000 м ясно +29.8 +14.3 39 +32 +40 душно 1010.2 1010.0
12 18.02 ЮВ 1 4000 м ясно +26.4 +18.6 62 +31 +31 душно 1010.5 1011.0 +31.4
15 18.02 штиль 0 2000 м мгла ясно +23.8 +20.1 80 +29 +29 душно 1012.1 1012.0
18 18.02 штиль 0 2000 м мгла ясно +22.6 +19.2 81 +29 +29 очень
душно
1012.3 1012.0
21 18.02 штиль 0 2000 м мгла ясно +21.4 +18.2 82 +26 +26 душно 1011.3 1011.0
00 19.02 штиль 0 2000 м мгла 3/0
[Ci fib]
+21.0 +17.4 80 +25 +25 комфорт 1011.8 1012.0
03 19.02 Ю 2 2000 м мгла ясно +23.4 +19.7 80 +30 +37 очень
душно
1013.6 1014.0 +18.8
06 19.02 ЮЗ 2 4000 м ясно +30.4 +17.2 45 +34 +50 очень
душно
1012.8 1013.0
09 19.02 С 2 4000 м ясно +29.0 +23.8 74 +40 +48 очень
душно
1010.3 1010.0
12 19.02 Ю 1 4000 м ясно +26.0 +22.1 79 +34 +34 очень
душно
1010.4 1010.0 +31.0
15 19.02 штиль 0 2000 м мгла ясно +23.8 +21.1 85 +30 +30 очень
душно
1012.3 1012.0
18 19.02 штиль 0 2000 м мгла ясно +22.4 +19.3 83 +28 +28 душно 1012.4 1012.0
21 19.02 штиль 0 2000 м мгла ясно +22.0 +19.2 84 +27 +27 душно 1011.4 1011.0
00 20.02 штиль 0 2000 м мгла ясно +20.0 +17.4 85 +23 +23 комфорт 1011.9 1012.0
03 20.02 С 1 2000 м мгла 5/3 540 м
[Sc Ac trans]
+25.0 +19.4 71 +30 +35 душно 1013.9 1014.0 +18.5
06 20.02 штиль 0 4000 м 3/0
[Ac trans]
+30.8 +18.1 47 +35 +53 опасность
солнечного
удара
1013.2 1013.0
09 20.02 ЮВ 1 4000 м 5/0
[Ac trans Ci fib]
+30.6 +19.7 52 +37 +44 очень
душно
1009.7 1010.0
12 20.02 СВ 1 4000 м 5/0
[Ci fib]
+26.0 +22.1 79 +34 +34 очень
душно
1009.5 1010.0 +32.8
15 20.02 ЮЗ 1 4000 м 3/0
[Ci fib]
+24.4 +19.1 72 +29 +29 душно 1010.9 1011.0
18 20.02 Ю 1 2000 м мгла ясно +22.0 +17.1 74 +26 +26 душно 1011.1 1011.0
21 20.02 штиль 0 2000 м мгла ясно +21.0 +17.1 78 +25 +25 комфорт 1010.2 1010.0
00 21.02 СЗ 1 2000 м мгла ясно +20.2 +16.2 78 +25 +25 комфорт 1010.1 1010.0
03 21.02 СВ 1 2000 м мгла ясно +24.0 +17.2 66 +28 +36 душно 1012.2 1012.0 +17.8
06 21.02 СВ 1 4000 м ясно +30.0 +20.3 56 +37 +55 опасность
солнечного
удара
1010.9 1011.0
09 21.02 ЮВ 2 4000 м ясно +29.4 +19.6 56 +35 +45 очень
душно
1008.2 1008.0
12 21.02 ЮВ 1 2000 м мгла ясно +26.0 +21.2 75 +33 +33 очень
душно
1008.2 1008.0 +32.1
15 21.02 штиль 0 2000 м мгла ясно +24.6 +20.6 78 +31 +31 очень
душно
1009.7 1010.0
18 21.02 штиль 0 4000 м ясно +23.0 +19.9 83 +30 +30 очень
душно
1010.3 1010.0
21 21.02 штиль 0 2000 м мгла ясно +22.0 +18.8 82 +27 +27 душно 1009.7 1010.0
00 22.02 штиль 0 2000 м мгла ясно +20.8 +17.9 83 +24 +24 комфорт 1009.5 1010.0
03 22.02 СВ 1 2000 м мгла ясно +24.6 +14.5 53 +27 +35 жарко 1011.8 1012.0 +17.7
06 22.02 СВ 1 4000 м ясно +32.0 +10.0 26 +32 +51 опасность
солнечного
удара
1010.7 1011.0
09 22.02 В 1 4000 м ясно +32.2 +16.4 39 +35 +45 очень
душно
1007.5 1008.0
12 22.02 В 1 4000 м ясно +28.0 +16.8 51 +32 +32 душно 1007.9 1008.0 +36.1

 

Местоположение метеостанции Balasore (Orissa, Индия): широта 21.52 долгота 86.93 высота над уровнем моря 20 м.

В архиве по умолчанию представлена погода в Balasore за последнюю неделю. Архивные данные за месяц целиком и за предыдущие месяцы, начиная с января 2011 года, Вы можете получить, выбрав интересующий диапазон дат из раскрывающегося списка и нажав кнопку "Ввод!".

Внимание! Время в таблицах - всемирное. Для получения местного времени необходимо прибавить поправку, которая в Balasore равна 5.5 ч.

Смотрите также архив погоды в соседних городах и на ближайших метеорологических станциях:

Погода в Baripada (Orissa, Индия) (49 км)
Погода в Digha (West Bengal, Индия) (60 км)
Погода в Chandbali (Orissa, Индия) (85 км)
Погода в Contai (West Bengal, Индия) (90 км)
Погода в Midnapore (West Bengal, Индия) (108 км)
Погода в Haldia (West Bengal, Индия) (128 км)
Погода в Paradip Port (Orissa, Индия) (138 км)
Погода в Keongjhargarh (Orissa, Индия) (146 км)
Погода в Diamond Harbour (West Bengal, Индия) (150 км)
Погода в Uluberia (West Bengal, Индия) (151 км)

Пояснения к столбцам:

Ветер - указаны скорость ветра в м/с - средняя за 10 мин, порывы в срок и между сроками (в фигурных скобках) и направление, откуда дует ветер: С - северный, СВ - северо-восточный, В - восточный, ЮВ - юго-восточный, Ю - южный, ЮЗ - юго-западный, З - западный, СЗ - северо-западный.
Видимость - горизонтальная дальность видимости в метрах или километрах. При видимости от 1 до 10 км при отсутствии осадков обычно наблюдается дымка, при ухудшении видимости до 1 км и менее - туман. В сухую погоду видимость может ухудшаться дымом, пылью или мглою.
Явления - указаны атмосферные явления, наблюдавшиеся в срок или в последний час перед сроком; фигурными скобками обозначены явления, наблюдавшиеся между сроками (за 1-3 часа до срока); квадратными скобками обозначены град или гололедные отложения с указанием их диаметра в мм.
Облачность - указаны через наклонную черту общая и нижняя облачность в баллах и высота нижней границы облаков в метрах; квадратными скобками обозначены формы облаков: Ci - перистые, Cs - перисто-слоистые, Cc - перисто-кучевые, Ac - высококучевые, As - высокослоистые, Sc - слоисто-кучевые, Ns - слоисто-дождевые, Cu - кучевые, Cb - кучево-дождевые. Подробнее классификацию облаков см. в Атласе облаков (PDF).
T - Температура воздуха - температура, измеренная на высоте 2 м над землей.
Td - Температура точки росы - температура, при понижении до которой содержащийся в воздухе водяной пар достигнет насыщения.
f - Относительная влажность воздуха - влажноcть воздуха, измеренная на высоте 2 м над землей.
Te - Эффективная температура - температура, которую ощущает одетый по сезону человек в тени. Характеристика душности погоды. При расчете учитывается влияние влажности воздуха и скорости ветра на теплоощущения человека.
Tes - Эффективная температура на солнце - температура, которую ощущает человек, с поправкой на солнечный нагрев. Характеристика знойности погоды. Зависит от высоты солнца над горизонтом, облачности и скорости ветра. Ночью, в пасмурную погоду, а также при ветре 12 м/с и более поправка равна нулю.
P - Атмосферное давление - приведенное к уровню моря атмосферное давление.
Po - Атмосферное давление - измеренное на уровне метеостанции атмосферное давление.
Tmin - Минимальная температура - минимум температуры воздуха на высоте 2 м над землей.
Tmax - Максимальная температура - максимум температуры воздуха на высоте 2 м над землей.
R - Количество осадков - Количество выпавших осадков за период времени, мм. При наведении курсора мыши на число - период времени, за который выпало указанное количество осадков.
R24 - Количество осадков - Количество выпавших осадков за 24 часа, мм.
S - Снежный покров - Высота снежного покрова, см. При наведении курсора мыши на число - состояние снежного покрова и степень покрытия местности в баллах.